Rochelle, IL

11:06 PM CDT on June 24, 2017 (GMT -0500)
Rochelle

Weather History for KRPJ - March, 2014

Change the Weather History Date:

Wednesday, March 5, 2014

  Actual Average (KRFD) Record (KRFD)
Temperature  
Mean Temperature 20 °F -  
Max Temperature 27 °F 38 °F 74 °F (1983)
Min Temperature 12 °F 22 °F -9 °F (1978)
Degree Days  
Heating Degree Days 46    
Moisture  
Dew Point 13 °F    
Average Humidity 76    
Maximum Humidity 87    
Minimum Humidity 65    
Precipitation  
Precipitation 0.00 in - - ()
Sea Level Pressure  
Sea Level Pressure 30.36 in    
Wind  
Wind Speed 13 mph (NE)    
Max Wind Speed 18 mph    
Max Gust Speed 23 mph    
Visibility 8 miles    
Events Snow    
Averages and records for this station are not official NWS values.
T = Trace of Precipitation, MM = Missing Value Source: NWS Daily Summary

Daily Weather History Graph

Daily Weather History Graph

Search for Another Location

Airport or City:

Trip Planner

Search our weather history database for the weather conditions in past years. The results will help you decide how hot, cold, wet, or windy it might be!

Date:

Astronomy

Mar. 05, 2014 Rise Set
Actual Time 6:24 AM CST 5:51 PM CST
Civil Twilight 5:56 AM CST 6:19 PM CST
Nautical Twilight 5:24 AM CST 6:51 PM CST
Astronomical Twilight 4:52 AM CST 7:23 PM CST
Moon 8:45 AM CST (3/5) 11:04 PM CST (3/5)
Length of Visible Light 12h 22m
Length of Day
11h 26m
Waxing Crescent, 23% of the Moon is Illuminated
Mar 5
Waxing Crescent
Mar 8
First Quarter
Mar 16
Full
Mar 23
Last Quarter
Mar 30
New

Hourly Weather History & Observations

Time (CST) Temp. Windchill Dew Point Humidity Pressure Visibility Wind Dir Wind Speed Gust Speed Precip Events Conditions
12:15 AM 19.6 °F 8.9 °F 11.5 °F 71% 30.23 in 10.0 mi ENE 9.2 mph - N/A   Overcast
12:35 AM 19.9 °F 10.1 °F 12.2 °F 72% 30.25 in 10.0 mi NE 8.1 mph - N/A   Overcast
12:55 AM 20.1 °F 10.3 °F 12.6 °F 73% 30.25 in 10.0 mi NE 8.1 mph - N/A   Overcast
1:15 AM 20.1 °F 11.3 °F 12.9 °F 74% 30.26 in 10.0 mi NE 6.9 mph - N/A   Mostly Cloudy
1:35 AM 19.9 °F 9.3 °F 13.1 °F 75% 30.26 in 10.0 mi NE 9.2 mph - N/A   Mostly Cloudy
1:55 AM 19.9 °F 9.3 °F 13.1 °F 75% 30.27 in 10.0 mi NNE 9.2 mph - N/A   Mostly Cloudy
2:15 AM 19.4 °F 7.2 °F 13.5 °F 78% 30.27 in 10.0 mi NNE 11.5 mph - N/A   Overcast
2:35 AM 19.2 °F 5.3 °F 14.7 °F 83% 30.26 in 7.0 mi NE 15.0 mph - N/A Snow Light Snow
2:50 AM 19.0 °F 4.5 °F 15.4 °F 86% 30.26 in 4.0 mi NE 16.1 mph - N/A Snow Light Snow
3:15 AM 19.2 °F 5.3 °F 15.8 °F 87% 30.26 in 5.0 mi NE 15.0 mph - N/A Snow Light Snow
3:35 AM 19.0 °F 5.0 °F 15.3 °F 85% 30.27 in 4.0 mi NE 15.0 mph - N/A Snow Light Snow
3:55 AM 18.7 °F 4.0 °F 14.4 °F 83% 30.27 in 3.0 mi ENE 16.1 mph - N/A Snow Light Snow
4:15 AM 18.5 °F 2.9 °F 14.0 °F 83% 30.28 in 2.0 mi ENE 18.4 mph - N/A Snow Light Snow
4:35 AM 18.3 °F 2.6 °F 13.6 °F 82% 30.29 in 1.2 mi ENE 18.4 mph - N/A Snow Light Snow
4:55 AM 18.1 °F 3.9 °F 13.6 °F 83% 30.29 in 1.2 mi ENE 15.0 mph - N/A Snow Light Snow
5:15 AM 18.0 °F 3.6 °F 13.8 °F 84% 30.30 in 1.8 mi ENE 15.0 mph - N/A Snow Light Snow
5:35 AM 18.0 °F 2.6 °F 13.6 °F 83% 30.31 in 4.0 mi ENE 17.3 mph - N/A Snow Light Snow
5:55 AM 18.0 °F 3.1 °F 13.6 °F 83% 30.31 in 5.0 mi ENE 16.1 mph 20.7 mph N/A Snow Light Snow
6:15 AM 17.8 °F 2.9 °F 13.8 °F 84% 30.32 in 10.0 mi NE 16.1 mph - N/A   Overcast
6:35 AM 17.6 °F 3.2 °F 13.6 °F 84% 30.33 in 3.0 mi NE 15.0 mph - N/A Snow Light Snow
6:55 AM 17.6 °F 3.7 °F 13.6 °F 84% 30.34 in 2.5 mi ENE 13.8 mph - N/A Snow Light Snow
7:15 AM 17.8 °F 4.6 °F 13.8 °F 84% 30.36 in 1.2 mi ENE 12.7 mph - N/A Snow Light Snow
7:35 AM 18.1 °F 4.4 °F 14.0 °F 84% 30.36 in 1.5 mi ENE 13.8 mph - N/A Snow Light Snow
7:55 AM 18.5 °F 4.9 °F 14.4 °F 84% 30.36 in 1.5 mi ENE 13.8 mph - N/A Snow Light Snow
8:15 AM 18.7 °F 4.0 °F 14.7 °F 85% 30.37 in 1.0 mi ENE 16.1 mph - N/A Snow Light Snow
8:35 AM 19.6 °F 6.2 °F 15.4 °F 84% 30.37 in 1.2 mi ENE 13.8 mph - N/A Snow Light Snow
8:55 AM 20.1 °F 5.4 °F 15.6 °F 83% 30.38 in 3.0 mi ENE 17.3 mph - N/A   Haze
9:15 AM 19.9 °F 5.7 °F 15.3 °F 82% 30.38 in 2.5 mi ENE 16.1 mph - N/A Snow Light Snow
9:35 AM 20.7 °F 7.6 °F 15.8 °F 81% 30.38 in 2.5 mi ENE 13.8 mph 19.6 mph N/A Snow Light Snow
9:55 AM 21.7 °F 8.5 °F 16.9 °F 82% 30.38 in 5.0 mi ENE 15.0 mph - N/A   Haze
10:15 AM 22.1 °F 8.9 °F 17.1 °F 81% 30.38 in 5.0 mi ENE 15.0 mph - N/A Snow Light Snow
10:35 AM 23.0 °F 11.1 °F 16.7 °F 77% 30.39 in 4.0 mi ENE 12.7 mph 20.7 mph N/A Snow Light Snow
10:55 AM 23.9 °F 10.3 °F 17.4 °F 76% 30.38 in 4.0 mi ENE 17.3 mph - N/A Snow Light Snow
11:15 AM 24.6 °F 12.7 °F 18.0 °F 76% 30.39 in 7.0 mi ENE 13.8 mph - N/A   Mostly Cloudy
11:35 AM 25.0 °F 11.7 °F 18.0 °F 75% 30.40 in 10.0 mi NE 17.3 mph - N/A   Overcast
11:55 AM 24.4 °F 11.5 °F 17.4 °F 75% 30.40 in 10.0 mi NE 16.1 mph - N/A   Overcast
12:15 PM 25.2 °F 12.9 °F 18.1 °F 75% 30.40 in 10.0 mi ENE 15.0 mph - N/A   Overcast
12:35 PM 25.7 °F 13.1 °F 17.4 °F 71% 30.40 in 10.0 mi ENE 16.1 mph - N/A   Overcast
12:55 PM 25.3 °F 12.6 °F 16.5 °F 69% 30.39 in 10.0 mi ENE 16.1 mph 21.9 mph N/A   Overcast
1:15 PM 26.1 °F 13.6 °F 16.9 °F 68% 30.39 in 10.0 mi ENE 16.1 mph - N/A   Overcast
1:35 PM 27.1 °F 14.5 °F 16.9 °F 65% 30.39 in 10.0 mi NE 17.3 mph - N/A   Overcast
1:55 PM 25.5 °F 12.9 °F 15.4 °F 66% 30.38 in 10.0 mi NE 16.1 mph - N/A   Overcast
2:15 PM 24.8 °F 11.9 °F 15.1 °F 67% 30.39 in 10.0 mi NE 16.1 mph - N/A   Mostly Cloudy
2:35 PM 24.8 °F 11.1 °F 14.7 °F 66% 30.39 in 10.0 mi NE 18.4 mph - N/A   Overcast
2:55 PM 23.4 °F 9.6 °F 14.0 °F 67% 30.39 in 10.0 mi NE 17.3 mph 23.0 mph N/A   Overcast
3:15 PM 23.0 °F 9.2 °F 13.6 °F 67% 30.40 in 10.0 mi NE 17.3 mph - N/A   Overcast
3:35 PM 22.3 °F 8.7 °F 12.9 °F 67% 30.39 in 10.0 mi NE 16.1 mph - N/A   Overcast
3:55 PM 21.7 °F 7.5 °F 12.7 °F 68% 30.39 in 10.0 mi ENE 17.3 mph - N/A   Scattered Clouds
4:15 PM 21.2 °F 7.3 °F 12.2 °F 68% 30.40 in 10.0 mi NE 16.1 mph - N/A   Clear
4:35 PM 21.0 °F 6.6 °F 12.0 °F 68% 30.40 in 10.0 mi NE 17.3 mph - N/A   Clear
4:55 PM 20.7 °F 6.6 °F 11.8 °F 69% 30.40 in 10.0 mi NE 16.1 mph - N/A   Clear
5:15 PM 20.3 °F 7.2 °F 11.3 °F 68% 30.40 in 10.0 mi NE 13.8 mph - N/A   Clear
5:35 PM 19.4 °F 5.0 °F 10.9 °F 70% 30.40 in 10.0 mi NE 16.1 mph - N/A   Clear
5:55 PM 19.0 °F 6.1 °F 10.8 °F 70% 30.41 in 10.0 mi NE 12.7 mph - N/A   Clear
6:15 PM 18.5 °F 4.9 °F 10.4 °F 71% 30.41 in 10.0 mi NE 13.8 mph - N/A   Scattered Clouds
6:35 PM 18.1 °F 5.0 °F 10.0 °F 71% 30.41 in 10.0 mi NE 12.7 mph - N/A   Mostly Cloudy
6:55 PM 17.6 °F 4.3 °F 9.9 °F 72% 30.41 in 10.0 mi NE 12.7 mph - N/A   Overcast
7:15 PM 17.4 °F 4.7 °F 10.0 °F 73% 30.42 in 10.0 mi NE 11.5 mph - N/A   Overcast
7:35 PM 17.1 °F 4.3 °F 10.2 °F 75% 30.43 in 10.0 mi NE 11.5 mph - N/A   Overcast
7:55 PM 16.7 °F 3.8 °F 10.0 °F 75% 30.43 in 10.0 mi ENE 11.5 mph - N/A   Overcast
8:15 PM 16.7 °F 3.8 °F 10.0 °F 75% 30.43 in 10.0 mi NE 11.5 mph - N/A   Overcast
8:35 PM 16.5 °F 4.3 °F 10.2 °F 76% 30.43 in 10.0 mi NE 10.4 mph - N/A   Overcast
8:55 PM 16.3 °F 4.1 °F 9.9 °F 76% 30.43 in 10.0 mi NE 10.4 mph - N/A   Overcast
9:15 PM 16.3 °F 4.9 °F 9.9 °F 76% 30.43 in 10.0 mi NE 9.2 mph - N/A   Overcast
9:35 PM 15.6 °F 4.0 °F 9.5 °F 77% 30.42 in 10.0 mi NE 9.2 mph - N/A   Overcast
9:55 PM 14.9 °F 3.1 °F 9.3 °F 79% 30.41 in 10.0 mi NE 9.2 mph - N/A   Overcast
10:15 PM 14.7 °F 3.8 °F 9.0 °F 78% 30.41 in 10.0 mi NE 8.1 mph - N/A   Scattered Clouds
10:35 PM 14.4 °F 3.3 °F 9.0 °F 79% 30.41 in 10.0 mi NNE 8.1 mph - N/A   Mostly Cloudy
10:55 PM 14.0 °F 3.9 °F 8.6 °F 79% 30.40 in 10.0 mi NE 6.9 mph - N/A   Mostly Cloudy
11:15 PM 13.5 °F 5.8 °F 8.4 °F 80% 30.40 in 10.0 mi NE 4.6 mph - N/A   Scattered Clouds
11:35 PM 12.9 °F 3.8 °F 8.4 °F 82% 30.40 in 10.0 mi NE 5.8 mph - N/A   Clear
11:55 PM 12.4 °F 2.0 °F 7.9 °F 82% 30.40 in 10.0 mi ENE 6.9 mph - N/A   Scattered Clouds